Vorticity
7 6 5 5 8 12 11 9 9 7 5 11 12 6 3 0 7 12 7 10 9 -4 -4 4 3 -2 -0 3 1 2 15 21 12 4 7 5 4 5 3 3 7 6 7 11 13 11 7 4 4 5 3 3 5 4 5 8 7 6 5 5 8 10 10 9 7 7 8 6 4 4 3 3 3 3 5 6 7 6 6 6 6 6 6 7 7 7
6 7 7 5 7 10 10 8 8 7 6 11 13 7 5 2 -0 3 3 5 10 6 -2 1 7 3 -1 1 2 4 7 12 12 8 9 7 2 5 3 1 6 7 5 8 12 14 13 8 4 5 5 3 4 4 4 7 8 7 5 5 5 7 9 9 10 9 9 8 6 5 5 4 3 4 4 6 6 6 6 5 6 7 7 7 7 7
6 8 9 5 5 8 8 7 7 7 5 9 13 8 5 6 3 0 0 2 6 9 5 5 12 10 2 2 4 5 3 4 12 12 9 6 1 4 4 1 5 7 5 6 8 11 14 12 7 5 5 4 4 5 4 5 8 7 6 6 4 5 7 7 8 9 10 10 9 8 8 7 6 5 4 5 6 6 6 5 5 6 7 7 7 7
9 10 9 4 4 7 7 7 8 6 4 7 12 10 6 5 6 5 3 3 5 8 6 5 13 13 3 -1 3 8 5 1 11 19 15 6 3 6 5 1 4 5 4 5 5 8 10 12 12 8 5 4 5 5 4 3 5 8 8 6 5 3 4 5 5 6 7 7 7 8 9 9 8 6 6 6 6 6 6 5 5 4 5 6 7 7
12 12 8 5 5 6 6 7 8 6 4 6 11 13 10 6 4 5 5 3 4 5 4 1 8 15 9 -2 -3 8 11 2 3 15 16 7 1 3 4 3 5 5 5 5 5 5 7 9 12 11 8 5 5 5 5 3 4 7 8 8 6 4 3 2 2 3 5 5 5 6 7 9 9 8 8 8 8 8 7 7 6 4 5 5 5 6
10 11 8 6 5 5 6 8 8 5 4 5 10 14 11 8 5 4 5 6 5 5 6 1 -2 7 12 2 -4 5 12 7 4 8 13 10 4 3 6 5 3 4 5 6 5 4 5 8 10 11 10 7 6 6 5 4 4 5 7 9 7 5 4 2 1 2 3 4 5 5 7 9 10 9 8 8 8 8 8 8 7 5 5 4 4 4
9 10 10 8 6 5 4 7 9 7 4 2 8 13 11 9 8 5 5 6 5 5 7 6 -1 -1 8 10 6 6 7 9 11 9 9 13 12 8 8 7 4 4 5 5 6 6 4 5 8 10 11 10 8 8 7 6 6 4 5 9 9 7 7 4 2 1 2 4 5 5 6 8 8 8 8 9 8 8 8 9 9 8 6 5 4 3
12 10 11 10 7 6 3 5 9 7 4 3 6 11 11 9 7 5 5 3 3 5 5 6 6 1 0 5 9 8 4 6 10 9 8 13 13 9 6 6 5 5 5 4 5 6 6 5 6 7 10 11 10 9 8 8 7 5 4 6 7 7 8 7 4 3 2 3 5 4 5 5 6 6 6 8 9 9 8 8 10 10 8 8 7 4
12 11 10 11 8 7 6 5 9 9 7 5 5 8 10 6 2 3 7 5 1 4 6 7 9 6 -1 -1 5 8 6 7 9 7 10 15 11 6 7 8 6 5 5 6 5 4 6 6 6 7 9 11 12 10 8 9 8 7 6 6 6 6 8 8 7 6 5 4 5 4 4 4 4 5 6 7 8 8 9 9 10 11 10 9 8 6
9 9 8 8 9 8 7 5 7 10 11 7 4 7 9 5 0 -0 4 5 1 2 6 8 9 8 5 4 7 10 9 10 10 4 5 16 14 7 8 10 7 6 5 5 5 5 5 5 6 7 8 10 13 12 9 9 9 9 9 7 5 5 6 8 9 9 8 6 5 4 3 5 4 4 5 6 7 8 9 11 11 10 10 9 9 8
7 7 7 7 10 11 9 5 5 9 13 9 5 7 8 4 2 2 2 3 3 2 2 6 9 8 8 8 6 8 10 10 11 5 0 11 20 14 9 9 8 8 7 5 3 5 5 5 8 9 8 9 11 13 12 9 9 10 10 9 7 5 5 7 8 8 9 9 7 5 3 4 5 5 4 5 8 9 9 10 11 11 10 8 9 8
7 7 10 9 10 14 12 7 5 7 12 10 5 6 6 4 3 4 4 3 4 7 6 7 9 7 7 10 6 3 5 8 12 10 0 2 17 21 14 8 7 5 5 5 2 5 6 5 7 10 11 10 7 9 13 11 9 9 9 10 8 7 6 6 8 8 8 8 8 7 5 4 5 6 5 4 6 8 9 9 9 11 11 9 8 8
8 7 11 11 10 13 13 10 6 5 10 10 4 2 2 1 3 4 4 5 3 6 11 10 10 11 10 9 7 4 4 5 9 14 7 -2 5 19 18 9 7 4 4 7 3 2 6 4 5 8 10 10 6 5 9 11 10 8 8 10 9 9 8 7 6 7 7 7 8 8 7 6 6 6 7 5 5 6 7 7 7 8 10 10 9 8
11 8 11 13 11 10 10 12 8 5 10 12 5 1 0 -2 -0 2 2 4 3 -0 7 10 8 12 10 5 6 7 6 3 4 11 13 4 -1 8 16 12 9 5 3 9 7 2 5 6 5 7 7 7 5 4 5 8 10 10 8 8 9 9 10 10 8 6 6 7 7 7 7 7 6 6 7 6 5 5 5 6 6 6 9 9 8 7
10 10 11 12 11 9 9 13 12 6 8 14 10 3 2 -0 -0 3 1 3 4 -0 4 8 7 10 11 9 10 8 6 3 2 5 10 11 6 5 11 13 17 21 14 8 6 1 3 6 5 6 5 5 6 5 4 4 7 10 10 8 8 8 9 11 9 7 6 6 6 7 6 6 6 6 7 7 6 5 4 5 5 6 7 7 7 7
11 11 12 11 10 10 10 12 14 8 5 12 12 2 -0 2 2 4 3 3 6 4 2 4 7 10 11 11 10 7 7 6 4 5 8 13 11 6 7 10 25 43 32 9 2 2 3 5 6 6 4 4 5 6 6 5 4 6 9 9 8 8 8 10 11 8 7 6 6 7 7 7 6 5 6 6 6 5 5 5 4 4 6 7 7 7
12 12 13 10 10 12 10 9 13 12 7 9 11 4 2 8 6 3 2 2 7 7 3 3 6 8 8 8 8 6 7 7 7 8 8 13 13 8 5 5 16 36 27 5 0 3 2 4 5 6 5 4 4 5 6 6 5 5 7 9 9 9 7 8 10 10 10 8 6 6 6 7 7 7 6 6 5 6 6 5 4 4 4 5 7 8
12 11 13 11 9 12 12 11 12 14 11 8 10 11 9 7 3 2 2 0 5 8 4 2 6 8 5 5 8 10 7 4 5 7 5 9 12 10 8 5 6 15 14 5 3 4 3 4 5 5 5 5 4 4 5 6 6 6 6 7 10 11 10 9 8 8 10 11 8 6 5 6 7 7 7 6 5 6 6 5 5 5 4 4 5 7
15 12 13 11 9 11 12 13 12 13 13 9 10 13 10 4 3 4 4 1 2 8 6 -1 1 7 7 4 5 10 9 3 2 4 4 5 8 9 11 10 7 9 15 15 8 5 5 3 2 3 4 5 3 2 3 5 5 6 6 5 6 7 9 11 11 10 10 11 11 9 6 5 6 7 7 7 6 5 6 6 5 5 5 5 4 5
17 12 12 13 11 10 11 13 12 12 13 10 8 11 9 6 6 6 5 4 2 6 8 0 -7 -3 4 6 4 4 7 6 2 1 1 2 6 8 10 13 10 11 23 28 15 7 8 6 3 3 2 3 3 2 2 2 2 3 4 4 4 5 6 8 11 12 11 10 11 11 9 6 5 6 7 7 7 6 5 5 6 5 5 6 5 5
18 13 11 15 13 9 10 12 12 12 13 13 10 11 12 7 5 4 3 4 2 2 8 9 1 -5 -2 3 4 2 4 6 4 2 1 1 3 4 6 11 10 8 19 32 27 15 9 6 4 5 5 3 2 3 4 3 2 1 1 3 4 4 5 5 7 10 11 10 9 10 11 9 7 6 7 8 8 7 6 6 6 6 6 6 6 6
16 12 8 15 16 9 10 13 11 12 14 14 11 10 12 8 3 4 4 3 2 -1 2 9 9 4 -0 -1 0 3 5 4 3 3 4 4 5 4 2 5 7 5 7 17 24 19 12 9 2 -2 3 6 3 2 3 4 5 3 -0 1 4 4 4 4 5 6 9 10 9 9 10 10 9 7 6 7 8 7 6 6 5 6 7 6 6 7
16 12 4 12 17 9 10 13 10 10 13 14 14 10 11 12 6 2 4 4 4 3 0 2 5 6 4 4 5 3 2 4 3 2 2 4 6 7 4 2 3 4 3 5 11 14 14 14 9 3 5 7 5 3 2 3 5 5 1 -0 3 5 2 1 2 3 6 9 10 9 8 9 10 10 8 6 6 7 7 7 6 6 6 7 6 6
15 13 -1 7 21 11 7 14 10 7 11 13 15 14 11 13 11 4 2 4 5 4 3 2 4 4 1 8 15 6 -3 -0 3 5 5 3 5 8 8 7 4 3 3 3 6 9 11 11 11 13 11 7 4 3 3 5 4 3 3 2 4 3 1 1 2 3 5 7 8 9 9 8 8 10 11 8 5 5 5 6 6 6 7 7 7 6
12 13 -5 -1 26 20 2 10 14 7 8 11 13 16 12 9 11 10 5 3 3 3 3 3 4 4 -1 4 14 9 0 -1 2 8 9 6 5 4 5 8 10 8 6 5 5 6 9 8 9 15 16 12 11 6 2 8 8 1 1 5 6 3 2 4 6 6 6 3 5 8 9 9 9 9 12 11 8 5 4 5 6 6 7 6 7 8
9 16 0 -13 17 31 8 2 13 11 6 7 10 13 14 11 9 12 10 6 3 2 3 4 3 3 -1 -4 1 4 3 2 2 5 5 2 3 3 -2 -3 3 10 10 8 7 5 5 4 5 15 20 17 17 14 6 5 6 2 3 6 8 4 4 7 9 9 7 0 2 8 7 8 9 9 11 11 11 9 5 4 4 4 6 6 7 8
10 13 11 -10 -6 23 25 6 5 11 6 6 9 9 13 14 9 9 10 9 8 4 3 5 5 4 1 -6 -6 -3 -1 -1 0 3 0 -5 -2 4 2 -6 -5 6 9 9 11 7 6 7 5 10 16 11 10 15 14 11 9 9 9 8 7 5 5 8 8 11 11 1 -0 8 8 7 9 10 10 10 10 12 10 6 5 3 4 6 6 7
17 4 13 9 -14 -2 30 22 4 7 7 6 9 6 8 14 14 13 11 10 12 9 4 4 5 6 3 -2 -2 -1 -1 -2 -2 1 -0 -5 -4 6 11 2 -5 0 7 10 13 9 7 14 14 11 12 11 9 10 10 10 10 10 13 14 13 11 10 11 9 14 18 8 3 8 7 5 6 6 9 9 8 10 12 10 7 4 4 5 6 7
26 5 4 21 -0 -14 17 28 9 6 6 4 8 7 5 11 15 16 14 12 14 12 9 7 4 4 3 0 3 5 3 1 -1 -2 -2 -2 1 9 15 10 1 2 8 11 13 11 8 12 15 14 11 9 13 16 14 12 9 8 12 16 15 13 13 14 14 19 21 15 11 8 3 4 6 3 5 9 8 8 11 12 11 7 4 4 5 8
23 16 4 16 12 -7 5 19 13 9 5 3 11 13 11 11 13 16 15 14 15 14 12 10 6 4 4 1 2 4 4 3 1 0 1 3 8 10 11 12 9 10 15 13 9 8 5 1 2 9 10 4 6 15 18 15 15 13 10 10 10 9 10 12 14 18 21 21 19 8 -4 -0 8 6 3 4 5 7 8 10 13 11 7 3 3 5
12 21 15 14 11 0 3 11 13 15 9 -2 -1 6 12 13 11 13 15 13 14 15 13 12 9 6 6 4 3 3 4 5 5 7 8 8 12 14 12 12 11 13 19 17 7 2 2 1 -0 3 8 8 5 7 8 7 9 9 8 12 13 10 8 10 13 14 15 17 22 19 8 4 7 9 7 3 2 6 8 8 10 12 11 6 2 3
11 16 20 19 9 3 10 10 3 12 22 16 7 1 5 12 11 10 13 14 14 14 13 13 12 9 7 7 8 7 6 7 7 10 13 12 12 13 12 10 7 12 25 27 16 8 8 10 9 3 2 8 8 6 5 4 3 3 2 7 12 9 4 4 7 14 17 13 16 22 22 18 15 11 8 5 3 3 6 8 8 11 14 11 5 2
16 13 17 23 13 5 15 12 -5 0 17 28 33 20 2 5 12 9 10 15 15 14 13 13 14 15 12 7 6 10 12 13 11 10 11 12 12 9 9 9 4 6 20 25 16 13 17 20 20 10 3 5 7 6 7 7 7 7 5 5 9 10 10 8 5 10 18 15 11 15 21 28 32 24 9 4 7 4 2 6 8 9 13 14 10 5
16 14 13 20 17 10 13 11 2 4 2 4 28 37 14 -0 3 4 8 13 13 11 12 13 12 12 13 10 6 6 8 8 8 9 8 8 10 8 7 8 2 -3 7 17 15 15 19 20 17 12 6 5 5 5 6 6 5 7 8 7 5 5 12 18 15 11 12 12 14 20 24 30 39 37 18 6 9 8 1 3 11 12 12 14 12 7
15 15 13 15 16 12 9 5 6 13 7 -5 9 30 24 6 -4 -2 5 11 10 6 6 11 13 11 11 13 10 5 3 2 2 7 10 8 9 10 11 11 6 -2 1 13 18 16 12 10 11 11 9 7 7 6 6 8 7 5 6 8 6 3 4 5 6 4 -2 -4 3 12 17 24 37 46 38 24 18 14 4 3 11 16 13 13 14 12
25 18 13 13 16 13 7 4 4 8 11 6 6 16 25 20 6 -2 2 6 6 6 4 4 9 11 10 11 12 8 5 5 5 6 9 9 10 11 11 10 6 4 10 17 19 14 9 6 9 12 12 11 10 9 6 8 9 8 6 6 5 7 6 0 -1 2 -2 -5 -1 0 -1 9 24 34 37 35 30 27 21 14 14 16 12 7 9 11
34 31 20 13 15 17 12 8 5 6 7 6 6 9 17 26 22 8 4 6 6 8 10 6 3 6 5 7 13 15 10 7 9 7 3 5 8 8 10 10 6 9 19 21 17 16 15 11 7 7 8 9 9 9 7 6 8 8 8 6 4 5 9 7 6 10 8 6 8 4 -5 -2 10 18 23 30 33 36 37 27 16 14 13 10 9 6
20 31 33 25 19 17 16 12 12 13 8 3 6 10 11 25 36 22 5 5 6 3 7 10 7 8 9 5 4 11 15 12 10 8 3 2 4 2 4 9 7 10 17 17 12 13 15 14 10 7 7 8 8 8 7 6 6 7 6 6 4 3 6 7 5 7 8 6 10 15 9 3 4 3 0 4 11 21 34 38 32 25 15 6 5 8
4 11 22 30 30 25 18 15 17 20 14 4 5 9 7 17 36 35 15 7 7 4 4 10 9 10 22 28 17 9 12 12 11 12 9 6 6 3 0 3 4 7 8 4 -1 -2 -2 2 8 8 6 7 8 8 9 8 7 7 8 7 6 4 5 6 5 5 6 4 6 14 15 10 5 -1 -9 -12 -13 -8 6 23 34 40 38 25 10 5
13 9 7 12 23 29 26 22 18 18 18 14 11 13 9 2 11 29 30 19 13 11 13 19 16 2 4 23 31 24 18 13 10 12 14 14 14 11 6 3 2 3 3 -2 -7 -7 -7 -5 3 7 6 5 4 4 7 7 7 6 6 7 7 6 5 6 6 6 6 5 4 6 11 12 10 6 1 -4 -8 -9 -4 2 4 9 26 42 41 30
14 17 14 9 9 15 23 28 25 19 18 20 19 20 20 6 -2 11 25 25 20 16 14 20 24 9 -10 -9 4 11 13 10 4 3 9 18 23 23 20 16 10 4 1 -3 -5 -2 2 4 6 8 8 8 8 7 6 6 6 7 7 6 6 6 6 6 6 6 7 7 4 4 9 12 11 7 5 5 5 6 7 7 3 -6 -8 4 22 33
8 9 15 17 14 10 9 16 22 23 20 17 16 17 19 15 6 3 8 15 19 17 12 11 13 11 2 -3 -4 -2 3 9 9 4 -1 2 12 23 26 24 23 21 17 12 6 3 4 6 8 8 5 3 5 7 7 7 6 6 7 7 7 7 7 6 5 6 7 7 6 5 5 9 10 10 9 10 11 10 8 8 14 16 8 -1 -2 6
8 6 7 12 17 17 13 9 11 17 21 18 17 18 19 18 13 4 -0 8 16 17 16 13 8 3 3 5 6 4 1 4 12 15 10 6 12 19 16 15 21 22 18 18 19 16 11 6 3 4 4 2 1 2 4 7 8 8 9 9 9 10 10 10 10 9 8 8 8 7 6 7 8 9 8 8 8 8 8 7 7 10 13 12 9 8
5 6 6 6 9 12 16 16 12 11 14 15 17 21 23 24 23 14 4 7 15 17 16 18 19 15 10 10 13 15 12 4 2 6 10 15 22 18 7 13 31 33 22 15 12 10 10 7 2 1 3 3 3 1 1 4 6 7 8 8 7 8 8 8 9 9 8 7 6 6 6 6 6 7 7 8 9 8 8 8 7 7 8 7 8 9
6 6 7 7 7 7 8 13 16 14 12 10 10 13 17 22 27 22 12 9 14 14 9 10 15 16 16 15 15 18 21 15 7 3 2 8 22 22 2 -9 1 16 25 29 21 12 10 9 6 6 5 4 5 6 4 2 2 4 6 6 5 4 3 2 2 3 3 4 4 4 5 5 5 5 4 4 6 8 8 8 7 8 9 8 7 6
9 9 8 6 7 8 6 7 11 14 14 13 10 8 8 11 16 18 16 16 18 17 12 8 8 7 7 8 8 9 14 17 18 18 11 0 6 24 27 10 -7 -10 0 15 22 22 23 22 19 15 12 8 5 6 5 5 7 8 6 2 -1 -3 -3 -2 -1 -1 0 1 0 0 1 3 4 5 6 5 4 4 5 6 7 7 6 8 9 8
9 10 10 9 7 7 7 7 7 9 12 15 15 13 10 7 8 9 11 14 17 21 21 18 16 14 10 9 7 4 4 4 5 13 20 12 -1 2 10 3 -10 -15 -12 -5 1 2 5 16 24 23 22 22 19 15 12 11 10 7 1 -3 -2 -0 1 3 3 3 4 4 4 4 3 3 3 2 3 5 6 6 5 4 5 6 5 5 7 7
10 9 9 11 10 8 7 6 5 5 7 10 13 15 15 13 11 8 7 6 8 13 17 19 21 23 20 15 12 10 10 10 6 4 11 18 14 8 0 -12 -19 -13 -5 -1 -1 -8 -11 -1 12 15 15 16 16 16 14 9 4 3 1 1 2 2 2 5 6 6 7 5 5 6 6 6 7 6 5 4 5 6 7 7 6 6 6 5 6 6
11 11 10 10 11 12 12 11 9 7 5 5 6 9 11 13 15 14 12 9 6 4 6 9 13 19 22 16 11 12 13 15 21 25 25 24 26 28 29 26 22 21 18 12 6 3 0 2 7 9 7 4 2 4 4 -0 -3 -3 -2 -1 0 0 -0 1 2 5 8 9 8 7 7 7 7 7 8 8 7 6 6 6 7 8 8 9 8 7
10 10 10 9 8 8 8 9 9 10 9 7 6 4 5 6 9 12 14 16 15 11 8 5 3 6 14 16 14 16 10 -1 6 26 32 27 29 33 33 32 29 28 29 27 20 13 9 5 4 6 9 9 9 9 10 8 6 4 3 3 6 8 9 7 5 5 7 8 10 10 9 9 9 9 9 9 10 9 9 7 6 6 7 8 10 10
9 8 7 7 5 4 5 5 6 7 9 10 9 7 6 5 5 7 9 10 13 15 15 15 11 6 6 8 9 13 12 2 4 10 -6 -26 -17 3 11 12 10 8 13 21 23 22 19 12 6 5 6 7 8 8 9 13 14 13 12 11 10 10 11 11 11 11 10 9 10 11 10 9 9 9 9 9 8 8 9 8 8 8 8 7 8 9
Height
5843 5846 5849 5854 5858 5860 5862 5863 5864 5866 5867 5869 5871 5873 5876 5879 5881 5882 5884 5886 5888 5889 5890 5892 5893 5895 5896 5898 5899 5901 5901 5902 5904 5905 5907 5907 5909 5911 5912 5914 5915 5916 5917 5918 5919 5920 5922 5923 5924 5924 5925 5926 5927 5928 5929 5930 5932 5932 5933 5935 5935 5936 5937 5937 5938 5939 5941 5942 5942 5943 5943 5944 5945 5946 5946 5946 5946 5946 5947 5947 5947 5948 5948 5949 5949 5949
5840 5844 5848 5853 5855 5857 5858 5860 5861 5864 5866 5868 5869 5871 5874 5877 5879 5880 5882 5885 5887 5888 5890 5892 5894 5895 5896 5897 5899 5900 5901 5902 5904 5905 5906 5907 5908 5909 5911 5913 5915 5916 5917 5918 5919 5920 5921 5922 5923 5924 5925 5926 5927 5928 5929 5930 5932 5933 5934 5935 5936 5937 5938 5938 5939 5940 5941 5942 5943 5943 5944 5945 5945 5946 5947 5947 5948 5948 5948 5948 5949 5949 5949 5950 5950 5951
5838 5843 5847 5850 5851 5853 5854 5857 5860 5862 5864 5866 5868 5870 5873 5876 5878 5879 5881 5883 5885 5888 5890 5892 5893 5895 5896 5898 5899 5900 5900 5900 5902 5904 5905 5906 5907 5909 5910 5912 5914 5916 5917 5918 5918 5919 5920 5922 5923 5924 5925 5927 5928 5929 5930 5931 5932 5933 5934 5935 5936 5938 5939 5939 5940 5941 5942 5943 5943 5944 5944 5945 5946 5947 5947 5948 5948 5949 5949 5949 5950 5950 5950 5950 5951 5951
5837 5842 5844 5845 5847 5849 5852 5854 5858 5860 5862 5864 5866 5868 5871 5874 5876 5877 5879 5881 5884 5887 5889 5890 5892 5894 5895 5896 5899 5900 5899 5900 5901 5903 5904 5905 5907 5908 5910 5911 5913 5915 5917 5917 5918 5919 5920 5921 5923 5924 5925 5927 5928 5930 5931 5931 5932 5933 5935 5935 5936 5938 5939 5940 5941 5942 5942 5943 5943 5944 5944 5945 5946 5947 5948 5949 5949 5950 5950 5950 5950 5951 5951 5951 5952 5952
5836 5840 5840 5841 5844 5846 5849 5852 5855 5858 5860 5862 5865 5868 5870 5872 5874 5875 5877 5880 5883 5886 5888 5889 5891 5893 5894 5895 5896 5898 5899 5899 5900 5901 5903 5904 5906 5907 5909 5911 5912 5914 5916 5917 5918 5919 5920 5921 5922 5924 5925 5926 5928 5929 5931 5931 5932 5933 5935 5935 5936 5938 5940 5941 5942 5942 5942 5943 5944 5944 5945 5946 5947 5947 5948 5949 5950 5951 5951 5951 5951 5952 5952 5952 5953 5953
5833 5836 5836 5838 5841 5844 5847 5850 5853 5855 5858 5860 5864 5867 5869 5870 5871 5873 5876 5879 5882 5885 5887 5888 5890 5891 5892 5894 5895 5896 5898 5899 5900 5901 5902 5904 5905 5907 5909 5910 5912 5913 5915 5916 5917 5918 5919 5920 5922 5923 5925 5926 5927 5929 5930 5932 5933 5934 5935 5935 5936 5938 5939 5941 5942 5942 5943 5943 5944 5945 5946 5946 5947 5948 5949 5949 5950 5951 5952 5952 5953 5953 5953 5953 5953 5954
5830 5831 5833 5835 5839 5841 5844 5848 5851 5854 5855 5858 5863 5866 5867 5868 5870 5872 5875 5878 5880 5883 5883 5885 5887 5888 5890 5892 5893 5895 5896 5898 5900 5901 5901 5903 5905 5906 5908 5910 5911 5913 5914 5916 5917 5918 5919 5920 5921 5922 5924 5925 5927 5928 5930 5931 5932 5934 5935 5935 5937 5938 5939 5941 5942 5942 5943 5944 5945 5946 5947 5947 5948 5948 5949 5949 5950 5951 5952 5953 5953 5953 5954 5954 5954 5954
5826 5828 5831 5833 5836 5839 5843 5847 5850 5852 5854 5858 5862 5864 5865 5867 5869 5870 5873 5876 5878 5878 5879 5881 5884 5887 5889 5890 5893 5895 5895 5896 5898 5899 5900 5902 5904 5906 5907 5909 5910 5912 5913 5915 5917 5918 5919 5920 5920 5921 5923 5924 5926 5928 5929 5930 5932 5933 5934 5935 5937 5938 5939 5940 5942 5943 5944 5944 5945 5946 5947 5948 5948 5949 5949 5950 5950 5951 5952 5952 5953 5954 5954 5954 5954 5955
5823 5825 5828 5831 5834 5838 5842 5846 5848 5850 5853 5858 5861 5862 5863 5866 5867 5869 5871 5874 5874 5875 5877 5879 5883 5886 5888 5889 5891 5894 5894 5895 5897 5898 5899 5900 5902 5905 5907 5908 5909 5910 5912 5913 5915 5917 5918 5919 5919 5920 5922 5924 5926 5927 5928 5929 5931 5932 5933 5935 5936 5937 5938 5940 5942 5943 5944 5945 5946 5947 5947 5948 5948 5949 5949 5950 5950 5951 5952 5952 5953 5954 5954 5954 5955 5955
5820 5822 5825 5828 5831 5836 5841 5844 5846 5849 5853 5857 5858 5859 5862 5864 5865 5867 5869 5871 5871 5872 5875 5878 5881 5884 5887 5888 5889 5891 5892 5893 5895 5896 5898 5899 5901 5903 5905 5907 5908 5909 5911 5912 5914 5915 5917 5918 5919 5920 5922 5923 5925 5926 5927 5929 5930 5931 5932 5934 5936 5937 5938 5939 5941 5943 5944 5946 5946 5947 5947 5948 5948 5948 5949 5950 5950 5951 5951 5952 5953 5953 5954 5954 5955 5955
5816 5819 5822 5826 5830 5835 5838 5840 5843 5847 5852 5854 5854 5856 5859 5861 5863 5864 5866 5868 5868 5870 5873 5876 5878 5881 5884 5886 5887 5888 5890 5891 5893 5895 5897 5898 5900 5902 5903 5905 5906 5908 5910 5911 5912 5914 5915 5917 5918 5920 5922 5923 5924 5926 5927 5928 5929 5930 5931 5933 5935 5937 5938 5939 5940 5942 5944 5945 5946 5947 5947 5948 5948 5949 5949 5950 5951 5951 5952 5953 5953 5954 5954 5954 5954 5955
5814 5817 5821 5825 5829 5833 5835 5837 5841 5845 5848 5849 5850 5852 5855 5857 5859 5860 5863 5864 5864 5869 5873 5874 5876 5878 5881 5884 5884 5886 5888 5890 5891 5893 5895 5897 5898 5900 5902 5903 5905 5907 5908 5910 5911 5912 5914 5916 5918 5920 5922 5923 5924 5925 5926 5927 5928 5930 5931 5932 5934 5936 5938 5939 5940 5941 5943 5944 5945 5946 5947 5948 5949 5949 5950 5950 5951 5952 5952 5953 5953 5954 5954 5954 5954 5955
5811 5814 5818 5823 5827 5830 5832 5834 5838 5841 5843 5844 5845 5848 5850 5853 5855 5856 5859 5860 5863 5870 5873 5872 5873 5876 5880 5881 5881 5884 5886 5888 5890 5892 5893 5895 5896 5898 5900 5902 5904 5906 5907 5908 5910 5911 5913 5916 5918 5919 5921 5922 5923 5923 5924 5926 5927 5928 5930 5932 5933 5935 5937 5938 5939 5940 5942 5943 5944 5946 5947 5948 5948 5949 5950 5950 5951 5951 5952 5952 5953 5953 5954 5955 5955 5955
5809 5812 5816 5821 5824 5826 5829 5832 5836 5838 5840 5841 5843 5845 5847 5849 5851 5853 5856 5858 5864 5870 5870 5870 5871 5874 5877 5878 5879 5883 5885 5887 5889 5891 5892 5894 5895 5896 5898 5899 5901 5904 5906 5907 5908 5910 5912 5915 5916 5918 5919 5920 5921 5922 5923 5924 5926 5927 5929 5930 5932 5933 5935 5937 5938 5939 5941 5942 5943 5945 5946 5947 5948 5948 5949 5950 5950 5951 5951 5952 5952 5953 5953 5954 5955 5955
5806 5810 5815 5819 5821 5823 5827 5831 5833 5835 5837 5839 5842 5844 5846 5848 5850 5852 5855 5859 5865 5870 5869 5868 5869 5872 5876 5876 5878 5881 5883 5885 5888 5889 5891 5893 5894 5895 5897 5898 5899 5900 5903 5905 5906 5909 5911 5913 5915 5916 5918 5919 5920 5921 5922 5923 5924 5926 5928 5929 5931 5932 5933 5935 5937 5938 5940 5941 5942 5943 5945 5945 5946 5947 5948 5949 5950 5950 5951 5951 5952 5952 5953 5953 5954 5954
5804 5808 5812 5815 5818 5821 5825 5828 5830 5832 5834 5837 5839 5841 5843 5846 5849 5852 5854 5858 5865 5868 5866 5866 5868 5872 5876 5876 5877 5879 5881 5884 5886 5888 5890 5892 5894 5895 5896 5897 5897 5897 5899 5902 5905 5907 5909 5912 5913 5915 5917 5917 5919 5920 5922 5923 5924 5925 5927 5929 5930 5931 5933 5934 5935 5936 5938 5939 5941 5942 5943 5944 5945 5946 5947 5948 5949 5950 5951 5951 5952 5952 5953 5953 5954 5954
5802 5805 5808 5812 5815 5819 5822 5825 5828 5831 5833 5835 5836 5838 5842 5845 5848 5850 5852 5856 5861 5863 5863 5864 5867 5871 5875 5875 5876 5877 5880 5882 5884 5886 5888 5890 5892 5894 5895 5896 5897 5897 5898 5901 5903 5905 5907 5910 5912 5914 5915 5916 5918 5920 5921 5922 5923 5925 5926 5928 5929 5931 5932 5934 5935 5936 5937 5938 5939 5940 5942 5943 5944 5945 5946 5947 5948 5949 5950 5951 5952 5952 5953 5953 5954 5955
5800 5803 5806 5809 5812 5816 5819 5823 5825 5828 5830 5833 5835 5839 5842 5843 5844 5847 5850 5853 5856 5859 5860 5862 5865 5869 5872 5874 5875 5877 5879 5881 5882 5885 5886 5888 5890 5892 5894 5895 5896 5897 5898 5900 5902 5904 5906 5909 5910 5912 5913 5915 5917 5919 5920 5922 5923 5924 5926 5927 5929 5930 5931 5932 5934 5935 5936 5937 5938 5939 5940 5942 5943 5944 5945 5946 5947 5948 5949 5950 5951 5952 5952 5953 5954 5955
5798 5801 5804 5807 5810 5813 5817 5820 5821 5824 5827 5830 5834 5837 5839 5840 5842 5845 5847 5849 5852 5855 5858 5861 5864 5867 5870 5873 5875 5876 5878 5879 5881 5883 5885 5887 5889 5890 5892 5894 5895 5896 5898 5900 5902 5903 5904 5906 5907 5910 5912 5914 5916 5918 5919 5920 5922 5923 5925 5926 5927 5928 5930 5931 5932 5934 5935 5936 5937 5938 5939 5940 5942 5943 5944 5945 5946 5947 5948 5949 5950 5951 5952 5953 5954 5955
5796 5800 5802 5805 5808 5810 5814 5817 5818 5821 5825 5828 5830 5833 5836 5838 5840 5843 5845 5847 5850 5852 5856 5860 5862 5864 5868 5871 5873 5874 5876 5878 5880 5882 5884 5886 5888 5889 5891 5892 5894 5895 5897 5899 5899 5899 5900 5902 5905 5908 5911 5913 5915 5916 5917 5919 5920 5921 5923 5924 5926 5927 5928 5929 5931 5933 5934 5935 5936 5937 5938 5939 5940 5941 5943 5944 5946 5946 5947 5948 5949 5950 5951 5952 5953 5954
5794 5798 5800 5803 5806 5808 5811 5814 5816 5819 5822 5825 5827 5830 5833 5835 5838 5841 5843 5845 5847 5850 5853 5857 5860 5862 5866 5869 5872 5873 5874 5876 5878 5881 5883 5884 5886 5888 5889 5890 5892 5894 5895 5896 5896 5896 5899 5902 5903 5905 5907 5909 5912 5915 5916 5917 5918 5919 5920 5922 5924 5926 5927 5928 5929 5930 5932 5933 5934 5935 5936 5937 5938 5940 5941 5943 5944 5945 5946 5947 5948 5949 5950 5951 5952 5953
5793 5796 5799 5801 5803 5806 5809 5811 5814 5816 5819 5821 5824 5827 5830 5832 5835 5838 5840 5842 5845 5847 5850 5854 5858 5861 5864 5867 5870 5872 5873 5875 5877 5879 5881 5882 5884 5885 5887 5888 5889 5891 5893 5894 5895 5896 5898 5901 5902 5903 5904 5907 5911 5913 5914 5915 5916 5917 5919 5921 5922 5924 5925 5927 5928 5929 5929 5930 5931 5932 5934 5935 5936 5937 5939 5941 5942 5943 5945 5946 5947 5948 5949 5950 5951 5952
5791 5794 5797 5799 5801 5803 5806 5809 5811 5813 5816 5819 5822 5825 5828 5831 5832 5835 5837 5840 5842 5844 5848 5852 5855 5858 5861 5864 5868 5870 5871 5873 5875 5877 5879 5881 5882 5883 5884 5885 5886 5888 5890 5892 5894 5896 5897 5898 5899 5901 5903 5906 5908 5910 5910 5912 5914 5915 5917 5919 5920 5921 5923 5924 5925 5926 5928 5929 5929 5930 5931 5932 5933 5935 5937 5939 5940 5941 5942 5944 5945 5946 5947 5948 5949 5950
5790 5792 5795 5797 5799 5801 5804 5807 5809 5811 5814 5817 5819 5822 5826 5828 5830 5832 5835 5837 5840 5842 5846 5849 5852 5855 5859 5862 5865 5868 5869 5871 5873 5875 5877 5879 5879 5880 5881 5883 5885 5887 5890 5891 5893 5895 5896 5897 5897 5899 5901 5903 5905 5905 5906 5908 5910 5913 5915 5917 5918 5919 5919 5920 5922 5923 5925 5926 5927 5927 5928 5929 5931 5933 5934 5936 5938 5939 5940 5941 5943 5944 5945 5946 5947 5948
5788 5791 5793 5795 5796 5799 5801 5804 5806 5809 5812 5814 5817 5819 5822 5825 5827 5829 5832 5834 5837 5840 5843 5847 5850 5853 5856 5859 5862 5865 5867 5868 5871 5873 5875 5877 5877 5879 5880 5883 5885 5887 5889 5890 5891 5892 5893 5895 5896 5898 5899 5900 5901 5902 5903 5905 5908 5911 5914 5916 5917 5917 5917 5918 5918 5919 5921 5922 5924 5925 5926 5927 5928 5930 5932 5933 5934 5936 5937 5938 5940 5941 5942 5944 5945 5946
5786 5788 5790 5792 5792 5795 5798 5801 5803 5806 5809 5812 5814 5816 5819 5822 5824 5826 5829 5832 5835 5838 5840 5844 5847 5850 5853 5856 5859 5862 5865 5866 5868 5871 5873 5874 5875 5877 5879 5881 5884 5886 5887 5887 5888 5889 5891 5893 5895 5896 5897 5897 5897 5899 5901 5904 5907 5910 5911 5912 5912 5913 5914 5915 5915 5916 5918 5919 5920 5922 5923 5924 5926 5928 5930 5931 5932 5933 5934 5935 5937 5938 5939 5941 5942 5942
5783 5785 5787 5788 5788 5790 5795 5798 5800 5803 5806 5809 5811 5814 5816 5819 5821 5823 5826 5829 5832 5836 5838 5841 5844 5847 5850 5853 5856 5859 5862 5864 5866 5868 5870 5871 5872 5874 5876 5879 5882 5884 5884 5885 5886 5888 5889 5891 5892 5894 5895 5895 5895 5896 5899 5902 5904 5906 5907 5907 5908 5909 5910 5912 5913 5914 5915 5916 5917 5919 5921 5923 5925 5927 5928 5929 5930 5931 5932 5933 5934 5936 5937 5937 5938 5939
5781 5783 5783 5783 5785 5787 5791 5795 5798 5801 5803 5805 5809 5811 5814 5816 5818 5821 5824 5827 5830 5833 5835 5838 5842 5845 5848 5850 5853 5856 5859 5861 5863 5864 5866 5868 5870 5871 5874 5876 5879 5881 5882 5883 5884 5886 5888 5889 5889 5891 5893 5893 5893 5895 5897 5898 5899 5902 5903 5905 5906 5907 5908 5910 5912 5912 5913 5913 5914 5916 5919 5921 5921 5922 5924 5925 5926 5927 5929 5931 5932 5934 5934 5935 5936 5937
5779 5780 5780 5780 5783 5786 5789 5792 5796 5799 5801 5803 5806 5809 5811 5814 5816 5819 5821 5824 5827 5830 5833 5836 5839 5842 5844 5847 5849 5853 5855 5858 5860 5861 5863 5865 5867 5869 5871 5873 5876 5878 5879 5880 5881 5883 5885 5886 5886 5888 5890 5891 5892 5893 5895 5896 5898 5899 5901 5902 5903 5904 5905 5907 5909 5908 5908 5909 5910 5912 5916 5917 5916 5918 5920 5921 5922 5923 5924 5926 5928 5930 5931 5933 5934 5934
5777 5778 5777 5778 5780 5784 5787 5790 5793 5795 5798 5802 5805 5807 5809 5811 5814 5816 5818 5820 5823 5826 5829 5833 5835 5838 5841 5843 5846 5849 5852 5854 5857 5858 5860 5862 5864 5866 5868 5870 5873 5875 5876 5878 5879 5880 5882 5883 5884 5885 5887 5888 5890 5891 5893 5895 5896 5897 5898 5899 5900 5901 5902 5904 5905 5905 5904 5905 5906 5908 5911 5912 5912 5914 5917 5918 5919 5920 5920 5921 5922 5924 5926 5928 5930 5932
5775 5776 5776 5777 5778 5781 5784 5787 5791 5793 5796 5800 5803 5805 5807 5809 5811 5813 5816 5818 5820 5823 5826 5829 5832 5835 5838 5841 5843 5845 5848 5851 5853 5855 5857 5859 5860 5863 5865 5867 5869 5871 5873 5875 5876 5877 5879 5881 5882 5883 5885 5886 5888 5889 5891 5892 5893 5894 5895 5897 5897 5898 5899 5901 5902 5902 5901 5902 5903 5904 5906 5907 5909 5910 5912 5914 5916 5917 5917 5918 5919 5920 5920 5922 5925 5927
5773 5775 5775 5776 5777 5779 5782 5785 5789 5792 5794 5796 5799 5802 5805 5807 5809 5811 5813 5815 5818 5820 5823 5826 5830 5833 5835 5838 5840 5842 5845 5847 5849 5852 5854 5855 5857 5860 5862 5864 5865 5868 5870 5871 5873 5875 5876 5878 5879 5881 5883 5885 5886 5888 5889 5890 5891 5892 5893 5894 5895 5895 5896 5898 5899 5899 5899 5899 5900 5901 5902 5903 5904 5905 5907 5909 5911 5912 5913 5915 5916 5916 5917 5919 5922 5924
5771 5773 5774 5775 5776 5777 5780 5783 5787 5789 5790 5791 5794 5798 5802 5804 5806 5808 5810 5813 5815 5818 5821 5824 5827 5830 5832 5834 5837 5839 5841 5843 5846 5848 5850 5852 5854 5857 5859 5861 5863 5865 5867 5868 5870 5872 5873 5875 5876 5878 5880 5883 5884 5885 5886 5887 5888 5889 5890 5892 5892 5892 5893 5894 5895 5895 5896 5897 5897 5897 5898 5899 5899 5900 5902 5904 5906 5907 5909 5911 5913 5914 5915 5917 5920 5922
5769 5771 5772 5774 5776 5776 5778 5781 5783 5784 5786 5788 5791 5795 5798 5801 5803 5805 5807 5810 5813 5816 5819 5821 5823 5826 5828 5830 5833 5835 5838 5840 5842 5844 5847 5849 5851 5854 5856 5858 5860 5862 5864 5866 5867 5869 5870 5872 5873 5875 5877 5879 5881 5882 5883 5884 5884 5886 5887 5889 5889 5889 5890 5891 5892 5893 5894 5894 5894 5894 5894 5894 5894 5895 5897 5900 5902 5903 5905 5907 5909 5911 5912 5914 5917 5919
5767 5769 5770 5772 5774 5775 5776 5779 5781 5781 5784 5787 5789 5792 5796 5797 5799 5802 5804 5807 5810 5813 5816 5818 5820 5823 5825 5827 5829 5831 5834 5837 5839 5841 5844 5846 5848 5850 5853 5855 5857 5859 5861 5863 5864 5865 5866 5868 5870 5871 5873 5876 5877 5879 5880 5881 5881 5883 5884 5885 5885 5886 5887 5889 5890 5890 5891 5891 5891 5891 5891 5891 5891 5892 5894 5897 5899 5900 5901 5903 5905 5908 5910 5912 5913 5915
5766 5767 5768 5769 5771 5773 5774 5776 5778 5780 5783 5785 5787 5790 5793 5794 5796 5799 5801 5803 5806 5809 5812 5815 5817 5820 5823 5824 5826 5828 5831 5834 5836 5839 5841 5843 5845 5847 5849 5851 5853 5856 5857 5859 5859 5860 5862 5864 5866 5868 5870 5872 5874 5875 5876 5877 5878 5879 5880 5881 5882 5883 5884 5886 5887 5887 5888 5888 5889 5889 5889 5889 5889 5890 5891 5894 5896 5897 5898 5900 5903 5906 5908 5910 5911 5912
5764 5766 5767 5768 5769 5770 5772 5774 5775 5776 5779 5783 5785 5787 5789 5791 5793 5795 5797 5799 5801 5805 5808 5811 5814 5817 5819 5821 5823 5826 5829 5831 5834 5836 5838 5840 5841 5843 5845 5848 5849 5851 5853 5854 5854 5856 5858 5860 5862 5864 5866 5868 5870 5871 5873 5874 5875 5876 5877 5878 5879 5879 5881 5883 5884 5885 5886 5886 5886 5887 5888 5888 5889 5890 5890 5891 5893 5894 5895 5898 5901 5902 5903 5906 5908 5909
5764 5764 5765 5766 5767 5768 5770 5771 5772 5775 5777 5779 5782 5784 5786 5788 5790 5791 5794 5796 5798 5801 5805 5808 5811 5813 5815 5816 5819 5822 5825 5828 5830 5832 5834 5836 5837 5839 5842 5844 5846 5847 5849 5850 5851 5853 5855 5857 5859 5861 5862 5864 5866 5868 5869 5871 5872 5873 5874 5875 5876 5876 5878 5879 5881 5882 5883 5884 5884 5886 5887 5888 5889 5890 5890 5890 5890 5891 5893 5895 5896 5897 5899 5901 5903 5904
5763 5763 5764 5765 5765 5766 5768 5769 5771 5773 5774 5775 5777 5781 5783 5785 5786 5788 5791 5794 5796 5799 5802 5805 5808 5810 5811 5812 5814 5818 5821 5824 5826 5827 5829 5831 5832 5834 5837 5839 5841 5842 5844 5846 5848 5849 5851 5853 5855 5857 5858 5860 5862 5863 5865 5867 5868 5869 5871 5871 5872 5873 5874 5876 5877 5879 5880 5881 5882 5883 5885 5885 5886 5887 5888 5888 5888 5889 5890 5892 5893 5894 5895 5897 5898 5900
5761 5762 5762 5763 5763 5764 5765 5766 5769 5771 5771 5772 5775 5778 5780 5781 5784 5787 5789 5791 5793 5795 5798 5801 5804 5805 5807 5808 5811 5813 5816 5818 5820 5822 5823 5826 5827 5828 5830 5833 5835 5837 5839 5841 5843 5844 5846 5848 5850 5852 5854 5855 5857 5858 5860 5861 5863 5864 5866 5867 5868 5869 5870 5872 5873 5875 5877 5878 5879 5880 5881 5883 5884 5885 5885 5886 5886 5888 5889 5890 5891 5891 5892 5893 5895 5896
5760 5760 5761 5761 5762 5762 5763 5764 5766 5767 5768 5770 5773 5774 5776 5778 5781 5784 5786 5788 5790 5791 5794 5796 5798 5800 5803 5805 5807 5809 5810 5811 5814 5817 5818 5820 5821 5821 5822 5824 5828 5830 5833 5835 5837 5839 5841 5843 5845 5848 5849 5851 5852 5853 5855 5856 5857 5859 5861 5862 5864 5865 5866 5867 5869 5871 5873 5875 5876 5877 5878 5879 5881 5882 5882 5883 5885 5887 5887 5888 5889 5890 5890 5891 5892 5893
5759 5759 5759 5760 5760 5761 5761 5762 5763 5763 5765 5768 5770 5771 5773 5775 5779 5782 5784 5785 5787 5788 5789 5792 5794 5796 5798 5801 5803 5804 5806 5809 5811 5813 5814 5815 5816 5816 5815 5816 5820 5823 5825 5828 5831 5834 5836 5838 5840 5843 5844 5846 5847 5849 5850 5852 5853 5855 5856 5858 5860 5861 5863 5864 5866 5867 5869 5871 5872 5873 5874 5876 5877 5878 5879 5881 5882 5884 5885 5885 5886 5887 5888 5889 5890 5891
5757 5757 5758 5758 5759 5759 5759 5760 5761 5761 5762 5764 5766 5768 5770 5772 5775 5778 5780 5782 5783 5784 5786 5788 5789 5791 5794 5796 5799 5801 5804 5806 5807 5808 5809 5810 5811 5811 5810 5811 5814 5816 5818 5822 5825 5828 5831 5833 5835 5837 5839 5841 5843 5845 5847 5849 5850 5852 5853 5855 5857 5858 5860 5861 5863 5864 5866 5868 5869 5870 5871 5872 5873 5874 5876 5877 5879 5880 5882 5883 5884 5885 5886 5886 5888 5889
5756 5756 5756 5756 5757 5757 5758 5758 5759 5760 5761 5761 5762 5763 5766 5769 5772 5774 5776 5777 5779 5781 5782 5784 5785 5787 5789 5792 5794 5797 5799 5801 5802 5803 5803 5804 5806 5808 5807 5807 5809 5811 5812 5816 5819 5822 5825 5827 5829 5831 5833 5835 5838 5840 5843 5845 5847 5849 5850 5852 5853 5855 5856 5858 5860 5861 5863 5864 5865 5866 5867 5868 5870 5871 5872 5873 5875 5876 5878 5880 5881 5882 5884 5884 5885 5886
5754 5754 5754 5754 5755 5755 5756 5757 5757 5758 5759 5759 5759 5760 5762 5764 5767 5769 5770 5772 5774 5776 5778 5780 5782 5783 5785 5787 5790 5792 5794 5796 5797 5799 5800 5800 5802 5804 5804 5804 5806 5807 5808 5811 5813 5816 5818 5821 5823 5826 5828 5830 5833 5835 5838 5840 5843 5844 5846 5847 5849 5851 5852 5854 5855 5857 5859 5860 5861 5863 5864 5865 5866 5868 5869 5870 5871 5872 5874 5876 5877 5878 5880 5881 5882 5883
5752 5753 5753 5753 5753 5753 5754 5755 5755 5756 5756 5757 5757 5758 5759 5760 5762 5764 5765 5767 5769 5771 5773 5775 5777 5779 5781 5783 5785 5787 5789 5791 5792 5794 5796 5797 5798 5798 5799 5800 5802 5803 5804 5806 5809 5811 5812 5814 5816 5819 5821 5824 5827 5830 5833 5835 5837 5840 5841 5843 5844 5845 5847 5849 5850 5852 5854 5855 5856 5858 5860 5861 5863 5864 5865 5866 5867 5868 5869 5871 5872 5874 5875 5876 5878 5879
5750 5751 5751 5751 5752 5752 5752 5752 5753 5753 5754 5754 5754 5755 5756 5757 5758 5759 5760 5762 5764 5765 5767 5769 5771 5774 5776 5778 5780 5782 5783 5785 5787 5788 5790 5791 5792 5793 5794 5795 5796 5798 5800 5802 5804 5805 5807 5809 5811 5813 5815 5818 5822 5825 5827 5829 5832 5834 5836 5838 5839 5840 5842 5843 5845 5846 5848 5850 5852 5853 5855 5856 5858 5860 5861 5863 5863 5864 5865 5866 5867 5869 5870 5871 5872 5873
5748 5748 5748 5749 5749 5750 5750 5750 5750 5750 5751 5751 5752 5752 5753 5754 5755 5756 5757 5758 5759 5761 5762 5764 5766 5768 5771 5773 5775 5776 5778 5780 5782 5783 5784 5785 5785 5786 5787 5789 5790 5792 5794 5796 5798 5799 5801 5803 5806 5808 5811 5813 5816 5819 5821 5823 5825 5827 5829 5831 5833 5835 5836 5838 5839 5841 5842 5844 5846 5848 5849 5851 5852 5854 5856 5858 5859 5860 5861 5861 5862 5864 5865 5866 5867 5868
5745 5745 5745 5746 5746 5746 5747 5747 5748 5748 5748 5748 5748 5749 5749 5750 5751 5751 5753 5754 5755 5757 5758 5759 5761 5763 5766 5768 5769 5771 5773 5775 5776 5776 5778 5780 5779 5778 5779 5781 5782 5785 5788 5790 5792 5794 5795 5797 5799 5803 5805 5808 5810 5812 5815 5817 5819 5821 5822 5825 5827 5829 5830 5832 5834 5835 5837 5838 5840 5841 5843 5845 5847 5848 5850 5851 5853 5855 5856 5857 5858 5859 5860 5861 5862 5863
5742 5742 5742 5742 5742 5743 5743 5744 5744 5745 5745 5745 5745 5745 5745 5745 5746 5747 5748 5750 5751 5752 5753 5755 5756 5757 5759 5761 5762 5764 5767 5769 5769 5770 5772 5774 5773 5773 5773 5774 5775 5778 5780 5783 5785 5787 5789 5791 5794 5797 5799 5801 5803 5805 5808 5810 5812 5814 5816 5817 5819 5821 5823 5825 5827 5829 5831 5832 5834 5835 5837 5838 5840 5842 5843 5845 5846 5848 5850 5852 5853 5854 5854 5855 5856 5857
5739 5739 5739 5739 5739 5739 5739 5739 5740 5740 5741 5741 5741 5741 5741 5741 5741 5742 5743 5744 5746 5747 5749 5750 5751 5752 5753 5755 5757 5758 5760 5761 5763 5765 5765 5764 5765 5767 5768 5769 5770 5772 5774 5776 5778 5781 5784 5786 5789 5791 5793 5794 5796 5798 5800 5802 5804 5806 5808 5810 5812 5814 5816 5818 5820 5822 5824 5826 5827 5829 5830 5832 5833 5835 5837 5838 5840 5841 5843 5845 5847 5848 5849 5850 5851 5851